| time (UTC) | temp F | wind direction | speed MPH | gust MPH | rain 1hr in | rain 24hr in | rain mn in | humidity % | barometer mb |
| 20260901204325 | 86 | 105 | 2.0 | 4.0 | 0.00 | 0.00 | 0.00 | 76 | 1013.5 |
| 20260901203815 | 86 | 120 | 1.0 | 3.0 | 0.00 | 0.00 | 0.00 | 75 | 1013.5 |
| 20260901203328 | 87 | 195 | 2.0 | 5.0 | 0.00 | 0.00 | 0.00 | 75 | 1013.5 |
| 20260901202818 | 87 | 164 | 2.0 | 5.0 | 0.00 | 0.00 | 0.00 | 75 | 1013.5 |
| 20260901202330 | 87 | 179 | 1.0 | 7.0 | 0.00 | 0.00 | 0.00 | 76 | 1013.4 |
| 20260901201824 | 87 | 148 | 3.0 | 7.0 | 0.00 | 0.00 | 0.00 | 76 | 1013.4 |
| 20260901201318 | 87 | 147 | 1.0 | 6.0 | 0.00 | 0.00 | 0.00 | 77 | 1013.4 |
| 20260901200325 | 86 | 153 | 2.0 | 5.0 | 0.00 | 0.00 | 0.00 | 76 | 1013.5 |
| 20260901195816 | 87 | 126 | 2.0 | 5.0 | 0.00 | 0.00 | 0.00 | 76 | 1013.5 |
| 20260901195327 | 87 | 130 | 3.0 | 6.0 | 0.00 | 0.00 | 0.00 | 76 | 1013.7 |
| 20260901194839 | 87 | 146 | 2.0 | 7.0 | 0.00 | 0.00 | 0.00 | 77 | 1013.6 |
| 20260901194330 | 87 | 137 | 3.0 | 7.0 | 0.00 | 0.00 | 0.00 | 76 | 1013.7 |
| 20260901193822 | 87 | 175 | 3.0 | 6.0 | 0.00 | 0.00 | 0.00 | 76 | 1013.8 |
| 20260901193333 | 87 | 205 | 2.0 | 4.0 | 0.00 | 0.00 | 0.00 | 76 | 1013.9 |
| 20260901192845 | 87 | 116 | 2.0 | 5.0 | 0.00 | 0.00 | 0.00 | 77 | 1013.9 |
| 20260901192318 | 86 | 139 | 3.0 | 7.0 | 0.00 | 0.00 | 0.00 | 77 | 1013.9 |
| 20260901191833 | 86 | 146 | 3.0 | 7.0 | 0.00 | 0.00 | 0.00 | 77 | 1013.9 |
| 20260901191324 | 86 | 153 | 2.0 | 6.0 | 0.00 | 0.00 | 0.00 | 78 | 1013.9 |
| 20260901190854 | 85 | 132 | 3.0 | 6.0 | 0.00 | 0.00 | 0.00 | 78 | 1013.9 |
| 20260901190325 | 85 | 177 | 1.0 | 5.0 | 0.00 | 0.00 | 0.00 | 79 | 1014.0 |
| 20260901185816 | 85 | 135 | 2.0 | 7.0 | 0.00 | 0.00 | 0.00 | 78 | 1014.1 |
| 20260901185328 | 85 | 98 | 3.0 | 8.0 | 0.00 | 0.00 | 0.00 | 77 | 1014.2 |
| 20260901184819 | 85 | 145 | 4.0 | 7.0 | 0.00 | 0.00 | 0.00 | 77 | 1014.2 |
| 20260901184332 | 85 | 136 | 4.0 | 8.0 | 0.00 | 0.00 | 0.00 | 76 | 1014.1 |
| 20260901183827 | 86 | 131 | 4.0 | 7.0 | 0.00 | 0.00 | 0.00 | 77 | 1014.2 |
| 20260901183322 | 85 | 121 | 4.0 | 7.0 | 0.00 | 0.00 | 0.00 | 78 | 1014.3 |
| 20260901182813 | 85 | 138 | 2.0 | 5.0 | 0.00 | 0.00 | 0.00 | 78 | 1014.4 |
| 20260901182328 | 85 | 119 | 2.0 | 8.0 | 0.00 | 0.00 | 0.00 | 80 | 1014.4 |
| 20260901181819 | 84 | 109 | 3.0 | 8.0 | 0.00 | 0.00 | 0.00 | 81 | 1014.4 |
| 20260901181330 | 83 | 103 | 3.0 | 5.0 | 0.00 | 0.00 | 0.00 | 82 | 1014.5 |
| 20260901180842 | 83 | 126 | 1.0 | 5.0 | 0.00 | 0.00 | 0.00 | 84 | 1014.5 |
| 20260901180332 | 82 | 189 | 1.0 | 5.0 | 0.00 | 0.00 | 0.00 | 84 | 1014.7 |
| 20260901175843 | 81 | 157 | 1.0 | 5.0 | 0.00 | 0.00 | 0.00 | 84 | 1014.7 |
| 20260901175318 | 81 | 138 | 1.0 | 3.0 | 0.00 | 0.00 | 0.00 | 85 | 1014.7 |
| 20260901174850 | 81 | 122 | 1.0 | 4.0 | 0.00 | 0.00 | 0.00 | 85 | 1014.9 |
| 20260901174320 | 81 | 118 | 2.0 | 5.0 | 0.00 | 0.00 | 0.00 | 85 | 1015.0 |
| 20260901173814 | 81 | 167 | 2.0 | 5.0 | 0.00 | 0.00 | 0.00 | 85 | 1015.1 |
| 20260901173325 | 81 | 132 | 2.0 | 4.0 | 0.00 | 0.00 | 0.00 | 85 | 1015.1 |
| 20260901172820 | 81 | 140 | 1.0 | 4.0 | 0.00 | 0.00 | 0.00 | 85 | 1015.1 |
| 20260901172332 | 81 | 69 | 1.0 | 6.0 | 0.00 | 0.00 | 0.00 | 84 | 1015.3 |
| 20260901171823 | 81 | 53 | 2.0 | 6.0 | 0.00 | 0.00 | 0.00 | 84 | 1015.2 |
| 20260901171314 | 81 | 58 | 2.0 | 4.0 | 0.00 | 0.00 | 0.00 | 84 | 1015.3 |
| 20260901170831 | 81 | 90 | 1.0 | 3.0 | 0.00 | 0.00 | 0.00 | 83 | 1015.4 |
| 20260901170322 | 81 | 82 | 1.0 | 5.0 | 0.00 | 0.00 | 0.00 | 82 | 1015.5 |
| 20260901165834 | 82 | 150 | 2.0 | 5.0 | 0.00 | 0.00 | 0.00 | 82 | 1015.6 |
| 20260901165347 | 82 | 129 | 2.0 | 5.0 | 0.00 | 0.00 | 0.00 | 82 | 1015.6 |
| 20260901164817 | 82 | 126 | 2.0 | 5.0 | 0.00 | 0.00 | 0.00 | 81 | 1015.6 |
| 20260901164329 | 82 | 147 | 3.0 | 5.0 | 0.00 | 0.00 | 0.00 | 82 | 1015.7 |
| 20260901163821 | 82 | 118 | 2.0 | 4.0 | 0.00 | 0.00 | 0.00 | 82 | 1015.6 |
| 20260901163312 | 82 | 74 | 2.0 | 5.0 | 0.00 | 0.00 | 0.00 | 82 | 1015.6 |
| 20260901162826 | 82 | 118 | 3.0 | 8.0 | 0.00 | 0.00 | 0.00 | 82 | 1015.7 |
| 20260901162344 | 82 | 167 | 4.0 | 8.0 | 0.00 | 0.00 | 0.00 | 81 | 1015.8 |
| 20260901161815 | 82 | 130 | 1.0 | 5.0 | 0.00 | 0.00 | 0.00 | 81 | 1015.9 |
| 20260901161326 | 82 | 119 | 3.0 | 7.0 | 0.00 | 0.00 | 0.00 | 80 | 1015.9 |
| 20260901160821 | 83 | 157 | 2.0 | 6.0 | 0.00 | 0.00 | 0.00 | 80 | 1015.9 |
| 20260901160316 | 83 | 108 | 3.0 | 6.0 | 0.00 | 0.00 | 0.00 | 79 | 1015.8 |
| 20260901155831 | 83 | 107 | 2.0 | 5.0 | 0.00 | 0.00 | 0.00 | 78 | 1015.9 |
| 20260901155321 | 84 | 98 | 3.0 | 6.0 | 0.00 | 0.00 | 0.00 | 76 | 1015.9 |
| 20260901154832 | 85 | 109 | 3.0 | 6.0 | 0.00 | 0.00 | 0.00 | 73 | 1015.9 |
| 20260901154328 | 86 | 292 | 1.0 | 4.0 | 0.00 | 0.00 | 0.00 | 73 | 1015.9 |
| 20260901153819 | 86 | 331 | 2.0 | 4.0 | 0.00 | 0.00 | 0.00 | 72 | 1015.9 |
| 20260901153330 | 86 | 313 | 1.0 | 5.0 | 0.00 | 0.00 | 0.00 | 72 | 1016.0 |
| 20260901152825 | 86 | 299 | 2.0 | 5.0 | 0.00 | 0.00 | 0.00 | 72 | 1016.2 |
| 20260901152316 | 86 | 360 | 1.0 | 5.0 | 0.00 | 0.00 | 0.00 | 72 | 1016.2 |
| 20260901151827 | 87 | 268 | 3.0 | 7.0 | 0.00 | 0.00 | 0.00 | 72 | 1016.2 |
| 20260901151339 | 87 | 300 | 3.0 | 8.0 | 0.00 | 0.00 | 0.00 | 72 | 1016.2 |
| 20260901150828 | 87 | 5 | 2.0 | 8.0 | 0.00 | 0.00 | 0.00 | 72 | 1016.2 |
| 20260901150340 | 86 | 350 | 1.0 | 8.0 | 0.00 | 0.00 | 0.00 | 73 | 1016.0 |
| 20260901145815 | 86 | 5 | 2.0 | 8.0 | 0.00 | 0.00 | 0.00 | 74 | 1016.0 |
| 20260901145326 | 85 | 274 | 3.0 | 6.0 | 0.00 | 0.00 | 0.00 | 75 | 1016.0 |
| 20260901144821 | 85 | 355 | 1.0 | 6.0 | 0.00 | 0.00 | 0.00 | 76 | 1015.9 |
| 20260901144333 | 85 | 5 | 3.0 | 6.0 | 0.00 | 0.00 | 0.00 | 77 | 1016.0 |
| 20260901143823 | 84 | 277 | 2.0 | 5.0 | 0.00 | 0.00 | 0.00 | 79 | 1015.9 |
| 20260901143315 | 83 | 317 | 3.0 | 7.0 | 0.00 | 0.00 | 0.00 | 80 | 1015.9 |
| 20260901142828 | 83 | 229 | 4.0 | 7.0 | 0.00 | 0.00 | 0.00 | 80 | 1015.9 |
| 20260901142319 | 82 | 345 | 2.0 | 7.0 | 0.00 | 0.00 | 0.00 | 82 | 1015.8 |
| 20260901141815 | 82 | 250 | 4.0 | 7.0 | 0.00 | 0.00 | 0.00 | 82 | 1015.7 |
| 20260901141346 | 81 | 278 | 2.0 | 5.0 | 0.00 | 0.00 | 0.00 | 84 | 1015.8 |
| 20260901140816 | 81 | 342 | 2.0 | 9.0 | 0.00 | 0.00 | 0.00 | 85 | 1015.8 |
| 20260901140327 | 80 | 238 | 4.0 | 9.0 | 0.00 | 0.00 | 0.00 | 87 | 1015.8 |
| 20260901135819 | 79 | 256 | 2.0 | 6.0 | 0.00 | 0.00 | 0.00 | 88 | 1015.8 |
| 20260901135330 | 79 | 246 | 4.0 | 6.0 | 0.00 | 0.00 | 0.00 | 88 | 1015.8 |
| 20260901134821 | 78 | 254 | 2.0 | 6.0 | 0.00 | 0.00 | 0.00 | 89 | 1015.8 |
| 20260901134316 | 78 | 270 | 1.0 | 7.0 | 0.00 | 0.00 | 0.00 | 89 | 1015.8 |
| 20260901133826 | 78 | 237 | 2.0 | 7.0 | 0.00 | 0.00 | 0.00 | 89 | 1015.8 |
| 20260901133321 | 78 | 263 | 4.0 | 7.0 | 0.00 | 0.00 | 0.00 | 90 | 1015.9 |
| 20260901132816 | 77 | 325 | 1.0 | 8.0 | 0.00 | 0.00 | 0.00 | 90 | 1015.9 |
| 20260901132328 | 77 | 254 | 4.0 | 8.0 | 0.00 | 0.00 | 0.00 | 91 | 1015.9 |
| 20260901131840 | 77 | 269 | 3.0 | 6.0 | 0.00 | 0.00 | 0.00 | 91 | 1016.0 |
| 20260901131351 | 76 | 261 | 3.0 | 7.0 | 0.00 | 0.00 | 0.00 | 91 | 1016.1 |
| 20260901130825 | 76 | 271 | 4.0 | 7.0 | 0.00 | 0.00 | 0.00 | 91 | 1016.2 |
| 20260901130316 | 76 | 248 | 2.0 | 6.0 | 0.00 | 0.00 | 0.00 | 92 | 1016.2 |
| 20260901125848 | 76 | 275 | 4.0 | 6.0 | 0.00 | 0.00 | 0.00 | 92 | 1016.2 |
| 20260901125318 | 75 | 291 | 1.0 | 6.0 | 0.00 | 0.00 | 0.00 | 92 | 1016.3 |
| 20260901124830 | 75 | 303 | 2.0 | 5.0 | 0.00 | 0.00 | 0.00 | 92 | 1016.3 |
| 20260901124324 | 75 | 277 | 2.0 | 4.0 | 0.00 | 0.00 | 0.00 | 92 | 1016.4 |
| 20260901123818 | 75 | 240 | 2.0 | 6.0 | 0.00 | 0.00 | 0.00 | 92 | 1016.3 |
| 20260901123330 | 75 | 267 | 3.0 | 6.0 | 0.00 | 0.00 | 0.00 | 92 | 1016.4 |
| 20260901122822 | 75 | 246 | 3.0 | 6.0 | 0.00 | 0.00 | 0.00 | 92 | 1016.4 |
| 20260901122333 | 75 | 267 | 4.0 | 7.0 | 0.00 | 0.00 | 0.00 | 92 | 1016.4 |
| 20260901121824 | 75 | 223 | 4.0 | 7.0 | 0.00 | 0.00 | 0.00 | 92 | 1016.4 |
| 20260901121316 | 74 | 281 | 2.0 | 6.0 | 0.00 | 0.00 | 0.00 | 93 | 1016.3 |
| 20260901120827 | 74 | 251 | 3.0 | 8.0 | 0.00 | 0.00 | 0.00 | 92 | 1016.4 |
| 20260901120322 | 74 | 240 | 4.0 | 8.0 | 0.00 | 0.00 | 0.00 | 92 | 1016.3 |
| 20260901115837 | 74 | 260 | 2.0 | 7.0 | 0.00 | 0.00 | 0.00 | 93 | 1016.4 |
| 20260901115326 | 74 | 262 | 2.0 | 8.0 | 0.00 | 0.00 | 0.00 | 93 | 1016.4 |
| 20260901114818 | 74 | 293 | 4.0 | 7.0 | 0.00 | 0.00 | 0.00 | 93 | 1016.5 |
| 20260901114333 | 74 | 268 | 3.0 | 6.0 | 0.00 | 0.00 | 0.00 | 93 | 1016.5 |
| 20260901113844 | 74 | 255 | 4.0 | 6.0 | 0.00 | 0.00 | 0.00 | 93 | 1016.5 |
| 20260901113314 | 74 | 267 | 2.0 | 5.0 | 0.00 | 0.00 | 0.00 | 93 | 1016.5 |
| 20260901112826 | 73 | 283 | 3.0 | 5.0 | 0.00 | 0.00 | 0.00 | 93 | 1016.6 |
| 20260901112337 | 73 | 255 | 2.0 | 4.0 | 0.00 | 0.00 | 0.00 | 93 | 1016.6 |
| 20260901111831 | 73 | 265 | 2.0 | 4.0 | 0.00 | 0.00 | 0.00 | 93 | 1016.5 |
| 20260901111322 | 73 | 243 | 2.0 | 4.0 | 0.00 | 0.00 | 0.00 | 92 | 1016.5 |
| 20260901110817 | 73 | 256 | 2.0 | 4.0 | 0.00 | 0.00 | 0.00 | 92 | 1016.4 |
| 20260901110328 | 73 | 240 | 2.0 | 4.0 | 0.00 | 0.00 | 0.00 | 92 | 1016.5 |
| 20260901105840 | 73 | 251 | 2.0 | 4.0 | 0.00 | 0.00 | 0.00 | 92 | 1016.5 |
| 20260901105331 | 73 | 285 | 2.0 | 4.0 | 0.00 | 0.00 | 0.00 | 92 | 1016.5 |
| 20260901104841 | 73 | 249 | 3.0 | 4.0 | 0.00 | 0.00 | 0.00 | 92 | 1016.5 |
| 20260901104315 | 73 | 250 | 2.0 | 4.0 | 0.00 | 0.00 | 0.00 | 92 | 1016.5 |
| 20260901103829 | 73 | 288 | 1.0 | 3.0 | 0.00 | 0.00 | 0.00 | 92 | 1016.5 |
| 20260901103321 | 73 | 278 | 2.0 | 4.0 | 0.00 | 0.00 | 0.00 | 92 | 1016.5 |
| 20260901102814 | 73 | 254 | 1.0 | 4.0 | 0.00 | 0.00 | 0.00 | 92 | 1016.4 |
| 20260901102330 | 73 | 281 | 2.0 | 4.0 | 0.00 | 0.00 | 0.00 | 92 | 1016.4 |
| 20260901101331 | 73 | 272 | 2.0 | 4.0 | 0.00 | 0.00 | 0.00 | 92 | 1016.2 |
| 20260901100822 | 73 | 225 | 2.0 | 4.0 | 0.00 | 0.00 | 0.00 | 92 | 1016.1 |
| 20260901100316 | 73 | 278 | 1.0 | 3.0 | 0.00 | 0.00 | 0.00 | 92 | 1016.0 |
| 20260901095831 | 73 | 252 | 1.0 | 3.0 | 0.00 | 0.00 | 0.00 | 92 | 1016.0 |
| 20260901095321 | 73 | 248 | 1.0 | 3.0 | 0.00 | 0.00 | 0.00 | 92 | 1015.9 |
| 20260901094833 | 73 | 254 | 1.0 | 5.0 | 0.00 | 0.00 | 0.00 | 92 | 1016.1 |
| 20260901094323 | 73 | 267 | 3.0 | 5.0 | 0.00 | 0.00 | 0.00 | 92 | 1016.2 |
| 20260901093819 | 73 | 268 | 2.0 | 4.0 | 0.00 | 0.01 | 0.00 | 92 | 1016.3 |
| 20260901093330 | 73 | 252 | 2.0 | 4.0 | 0.00 | 0.01 | 0.00 | 92 | 1016.3 |
| 20260901092842 | 73 | 280 | 2.0 | 6.0 | 0.00 | 0.01 | 0.00 | 92 | 1016.3 |
| 20260901092332 | 73 | 253 | 2.0 | 7.0 | 0.00 | 0.01 | 0.00 | 92 | 1016.4 |
| 20260901091822 | 73 | 258 | 5.0 | 7.0 | 0.00 | 0.01 | 0.00 | 92 | 1016.4 |
| 20260901091313 | 73 | 285 | 2.0 | 5.0 | 0.00 | 0.01 | 0.00 | 92 | 1016.5 |
| 20260901090828 | 73 | 277 | 2.0 | 5.0 | 0.00 | 0.01 | 0.00 | 91 | 1016.5 |
| 20260901090319 | 73 | 260 | 1.0 | 5.0 | 0.00 | 0.01 | 0.00 | 91 | 1016.5 |
| 20260901085815 | 73 | 262 | 2.0 | 6.0 | 0.00 | 0.01 | 0.00 | 91 | 1016.5 |
| 20260901085327 | 73 | 248 | 2.0 | 6.0 | 0.00 | 0.01 | 0.00 | 91 | 1016.5 |
| 20260901084818 | 73 | 199 | 1.0 | 5.0 | 0.00 | 0.01 | 0.00 | 91 | 1016.5 |
| 20260901084329 | 73 | 244 | 2.0 | 5.0 | 0.00 | 0.01 | 0.00 | 91 | 1016.5 |
| 20260901083821 | 73 | 218 | 2.0 | 4.0 | 0.00 | 0.01 | 0.00 | 91 | 1016.6 |
| 20260901083312 | 73 | 209 | 1.0 | 5.0 | 0.00 | 0.01 | 0.00 | 91 | 1016.6 |
| 20260901082827 | 73 | 244 | 2.0 | 5.0 | 0.00 | 0.01 | 0.00 | 91 | 1016.6 |
| 20260901082318 | 73 | 194 | 2.0 | 5.0 | 0.00 | 0.01 | 0.00 | 91 | 1016.5 |
| 20260901081830 | 73 | 215 | 1.0 | 4.0 | 0.00 | 0.01 | 0.00 | 91 | 1016.5 |
| 20260901081325 | 73 | 187 | 1.0 | 5.0 | 0.00 | 0.01 | 0.00 | 91 | 1016.5 |
| 20260901080816 | 73 | 188 | 2.0 | 5.0 | 0.00 | 0.01 | 0.00 | 91 | 1016.6 |
| 20260901080327 | 73 | 263 | 2.0 | 3.0 | 0.00 | 0.01 | 0.00 | 91 | 1016.6 |
| 20260901075818 | 73 | 222 | 2.0 | 4.0 | 0.00 | 0.01 | 0.00 | 91 | 1016.6 |
| 20260901075330 | 73 | 230 | 1.0 | 4.0 | 0.00 | 0.01 | 0.00 | 91 | 1016.5 |
| 20260901074821 | 74 | 194 | 2.0 | 5.0 | 0.00 | 0.01 | 0.00 | 91 | 1016.5 |
| 20260901074333 | 74 | 231 | 1.0 | 5.0 | 0.00 | 0.01 | 0.00 | 91 | 1016.5 |
| 20260901073825 | 74 | 267 | 2.0 | 5.0 | 0.00 | 0.01 | 0.00 | 91 | 1016.7 |
| 20260901073340 | 74 | 225 | 1.0 | 4.0 | 0.00 | 0.01 | 0.00 | 91 | 1016.7 |
| 20260901072832 | 74 | 213 | 1.0 | 4.0 | 0.00 | 0.01 | 0.00 | 91 | 1016.8 |
| 20260901072324 | 74 | 229 | 2.0 | 4.0 | 0.00 | 0.01 | 0.00 | 90 | 1016.7 |
| 20260901071835 | 74 | 207 | 1.0 | 5.0 | 0.00 | 0.01 | 0.00 | 90 | 1016.7 |
| 20260901071327 | 74 | 219 | 2.0 | 5.0 | 0.00 | 0.01 | 0.00 | 90 | 1016.7 |
| 20260901070819 | 74 | 234 | 2.0 | 5.0 | 0.00 | 0.01 | 0.00 | 90 | 1016.7 |
| 20260901070331 | 74 | 214 | 2.0 | 4.0 | 0.00 | 0.01 | 0.00 | 90 | 1016.7 |
| 20260901065825 | 74 | 233 | 1.0 | 6.0 | 0.00 | 0.01 | 0.00 | 90 | 1016.8 |
| 20260901065315 | 74 | 221 | 1.0 | 6.0 | 0.00 | 0.01 | 0.00 | 90 | 1016.9 |
| 20260901064831 | 74 | 224 | 2.0 | 4.0 | 0.00 | 0.01 | 0.00 | 90 | 1016.9 |
| 20260901064343 | 74 | 180 | 2.0 | 7.0 | 0.00 | 0.01 | 0.00 | 90 | 1016.9 |
| 20260901063836 | 74 | 175 | 2.0 | 7.0 | 0.00 | 0.01 | 0.00 | 90 | 1017.0 |
| 20260901063326 | 74 | 175 | 2.0 | 6.0 | 0.00 | 0.01 | 0.00 | 90 | 1017.1 |
| 20260901062818 | 74 | 219 | 4.0 | 6.0 | 0.00 | 0.01 | 0.00 | 90 | 1017.1 |
| 20260901062330 | 74 | 239 | 2.0 | 6.0 | 0.00 | 0.01 | 0.00 | 90 | 1017.2 |
| 20260901061842 | 74 | 201 | 1.0 | 4.0 | 0.00 | 0.01 | 0.00 | 90 | 1017.3 |
| 20260901061333 | 74 | 219 | 2.0 | 4.0 | 0.00 | 0.01 | 0.00 | 90 | 1017.3 |
| 20260901060824 | 74 | 175 | 1.0 | 4.0 | 0.00 | 0.01 | 0.00 | 90 | 1017.4 |
| 20260901060315 | 74 | 189 | 2.0 | 4.0 | 0.00 | 0.01 | 0.00 | 89 | 1017.4 |
| 20260901055833 | 73 | 181 | 1.0 | 4.0 | 0.00 | 0.01 | 0.00 | 89 | 1017.5 |
| 20260901055326 | 73 | 199 | 2.0 | 4.0 | 0.00 | 0.01 | 0.00 | 89 | 1017.5 |
| 20260901054817 | 73 | 163 | 2.0 | 5.0 | 0.00 | 0.01 | 0.00 | 89 | 1017.6 |
| 20260901054329 | 73 | 180 | 2.0 | 5.0 | 0.00 | 0.01 | 0.00 | 89 | 1017.8 |
| 20260901053840 | 73 | 184 | 2.0 | 5.0 | 0.00 | 0.01 | 0.00 | 89 | 1017.8 |
| 20260901053333 | 73 | 211 | 2.0 | 5.0 | 0.00 | 0.01 | 0.00 | 89 | 1017.8 |
| 20260901052316 | 73 | 192 | 2.0 | 6.0 | 0.00 | 0.01 | 0.00 | 89 | 1018.0 |
| 20260901051828 | 73 | 183 | 2.0 | 5.0 | 0.00 | 0.01 | 0.00 | 88 | 1018.0 |
| 20260901051323 | 73 | 181 | 2.0 | 6.0 | 0.00 | 0.01 | 0.00 | 88 | 1017.9 |
| 20260901050814 | 73 | 178 | 3.0 | 6.0 | 0.00 | 0.01 | 0.00 | 88 | 1018.0 |
| 20260901050345 | 73 | 190 | 1.0 | 4.0 | 0.00 | 0.01 | 0.00 | 88 | 1018.0 |
| 20260901045836 | 73 | 153 | 1.0 | 3.0 | 0.00 | 0.01 | 0.00 | 88 | 1018.1 |
| 20260901045326 | 73 | 173 | 0.0 | 3.0 | 0.00 | 0.01 | 0.00 | 88 | 1018.2 |
| 20260901044820 | 73 | 153 | 2.0 | 3.0 | 0.00 | 0.01 | 0.00 | 88 | 1018.1 |
| 20260901044331 | 73 | 165 | 1.0 | 4.0 | 0.00 | 0.01 | 0.00 | 87 | 1018.1 |
| 20260901043823 | 73 | 181 | 1.0 | 4.0 | 0.00 | 0.10 | 0.00 | 87 | 1018.1 |
| 20260901043334 | 72 | 183 | 2.0 | 4.0 | 0.00 | 0.10 | 0.00 | 87 | 1018.1 |
| 20260901042826 | 72 | 181 | 2.0 | 4.0 | 0.00 | 0.10 | 0.00 | 87 | 1018.1 |
| 20260901042321 | 73 | 200 | 1.0 | 6.0 | 0.00 | 0.10 | 0.00 | 87 | 1018.2 |
| 20260901041812 | 72 | 192 | 1.0 | 6.0 | 0.00 | 0.10 | 0.00 | 87 | 1018.1 |
| 20260901041326 | 72 | 213 | 1.0 | 3.0 | 0.00 | 0.10 | 0.00 | 87 | 1018.1 |
| 20260901040818 | 72 | 182 | 1.0 | 4.0 | 0.00 | 0.10 | 0.00 | 87 | 1018.2 |
| 20260901040330 | 72 | 212 | 2.0 | 4.0 | 0.00 | 0.10 | 0.00 | 87 | 1018.2 |
| 20260901035819 | 72 | 180 | 1.0 | 3.0 | 0.00 | 0.10 | 0.00 | 87 | 1018.2 |
| 20260901035330 | 72 | 196 | 1.0 | 3.0 | 0.00 | 0.10 | 0.00 | 86 | 1018.3 |
| 20260901034841 | 72 | 184 | 2.0 | 4.0 | 0.00 | 0.10 | 0.00 | 86 | 1018.3 |
| 20260901034351 | 72 | 170 | 2.0 | 4.0 | 0.00 | 0.10 | 0.00 | 86 | 1018.2 |
| 20260901033826 | 72 | 215 | 1.0 | 3.0 | 0.00 | 0.16 | 0.10 | 86 | 1018.2 |
| 20260901032832 | 72 | 159 | 1.0 | 3.0 | 0.00 | 0.16 | 0.10 | 86 | 1018.3 |
| 20260901032322 | 72 | 205 | 2.0 | 3.0 | 0.00 | 0.16 | 0.10 | 86 | 1018.5 |
| 20260901031814 | 72 | 198 | 1.0 | 4.0 | 0.00 | 0.16 | 0.10 | 86 | 1018.5 |
| 20260901031348 | 72 | 206 | 1.0 | 4.0 | 0.00 | 0.16 | 0.10 | 86 | 1018.6 |
| 20260901030819 | 72 | 194 | 1.0 | 3.0 | 0.00 | 0.16 | 0.10 | 86 | 1018.6 |
| 20260901030350 | 72 | 186 | 1.0 | 4.0 | 0.00 | 0.16 | 0.10 | 86 | 1018.7 |
| 20260901025821 | 72 | 172 | 2.0 | 4.0 | 0.00 | 0.16 | 0.10 | 86 | 1018.6 |
| 20260901025352 | 72 | 154 | 1.0 | 4.0 | 0.00 | 0.16 | 0.10 | 86 | 1018.7 |
| 20260901024823 | 72 | 165 | 1.0 | 6.0 | 0.00 | 0.16 | 0.10 | 86 | 1018.7 |
| 20260901024338 | 72 | 135 | 2.0 | 6.0 | 0.00 | 0.16 | 0.10 | 86 | 1018.7 |
| 20260901023828 | 72 | 169 | 2.0 | 4.0 | 0.00 | 0.16 | 0.10 | 85 | 1018.7 |
| 20260901023323 | 72 | 140 | 1.0 | 3.0 | 0.00 | 0.16 | 0.10 | 85 | 1018.7 |
| 20260901022818 | 72 | 188 | 1.0 | 4.0 | 0.00 | 0.16 | 0.10 | 85 | 1018.7 |
| 20260901022329 | 72 | 182 | 0.0 | 4.0 | 0.00 | 0.16 | 0.10 | 85 | 1018.7 |
| 20260901021844 | 72 | 145 | 1.0 | 4.0 | 0.00 | 0.16 | 0.10 | 85 | 1018.8 |
| 20260901021314 | 72 | 188 | 1.0 | 3.0 | 0.00 | 0.16 | 0.10 | 85 | 1018.8 |
| 20260901020847 | 72 | 181 | 1.0 | 3.0 | 0.00 | 0.16 | 0.10 | 84 | 1018.9 |
| 20260901020316 | 72 | 182 | 1.0 | 3.0 | 0.00 | 0.16 | 0.10 | 84 | 1018.8 |
| 20260901015828 | 72 | 182 | 0.0 | 3.0 | 0.00 | 0.16 | 0.10 | 84 | 1018.8 |
| 20260901015343 | 72 | 182 | 1.0 | 3.0 | 0.00 | 0.16 | 0.10 | 84 | 1018.7 |
| 20260901014834 | 72 | 132 | 2.0 | 3.0 | 0.00 | 0.16 | 0.10 | 84 | 1018.7 |
| 20260901014326 | 72 | 156 | 1.0 | 3.0 | 0.00 | 0.16 | 0.10 | 84 | 1018.7 |
| 20260901013817 | 72 | 156 | 1.0 | 3.0 | 0.00 | 0.16 | 0.10 | 84 | 1018.7 |
| 20260901013333 | 72 | 182 | 1.0 | 4.0 | 0.00 | 0.16 | 0.10 | 84 | 1018.8 |
| 20260901012823 | 72 | 185 | 2.0 | 4.0 | 0.00 | 0.16 | 0.10 | 84 | 1018.8 |
| 20260901012315 | 72 | 174 | 1.0 | 3.0 | 0.00 | 0.16 | 0.10 | 84 | 1018.9 |
| 20260901011826 | 72 | 174 | 2.0 | 4.0 | 0.00 | 0.16 | 0.10 | 84 | 1018.9 |
| 20260901011321 | 72 | 231 | 2.0 | 4.0 | 0.00 | 0.16 | 0.10 | 84 | 1018.8 |
| 20260901010832 | 72 | 214 | 1.0 | 3.0 | 0.00 | 0.16 | 0.10 | 84 | 1018.8 |
| 20260901010324 | 72 | 194 | 1.0 | 3.0 | 0.00 | 0.16 | 0.10 | 84 | 1018.8 |
| 20260901005815 | 72 | 144 | 1.0 | 3.0 | 0.00 | 0.16 | 0.10 | 84 | 1018.7 |
| 20260901005348 | 73 | 177 | 0.0 | 3.0 | 0.00 | 0.16 | 0.10 | 84 | 1018.7 |
| 20260901004819 | 73 | 158 | 1.0 | 3.0 | 0.00 | 0.16 | 0.10 | 84 | 1018.8 |
| 20260901004350 | 73 | 188 | 1.0 | 4.0 | 0.00 | 0.16 | 0.10 | 84 | 1018.7 |
| 20260901003820 | 73 | 191 | 1.0 | 3.0 | 0.00 | 0.16 | 0.10 | 84 | 1018.6 |
| 20260901003333 | 73 | 177 | 1.0 | 4.0 | 0.00 | 0.16 | 0.10 | 84 | 1018.7 |
| 20260901002340 | 73 | 210 | 1.0 | 5.0 | 0.00 | 0.16 | 0.10 | 84 | 1018.7 |
| 20260901001831 | 73 | 175 | 2.0 | 5.0 | 0.00 | 0.16 | 0.10 | 84 | 1018.7 |
| 20260901001326 | 73 | 171 | 2.0 | 3.0 | 0.00 | 0.16 | 0.10 | 84 | 1018.7 |
| 20260901000842 | 73 | 194 | 1.0 | 4.0 | 0.00 | 0.16 | 0.10 | 84 | 1018.6 |
| 20260901000332 | 73 | 176 | 1.0 | 3.0 | 0.00 | 0.16 | 0.10 | 84 | 1018.7 |
| 20260831235825 | 73 | 163 | 2.0 | 7.0 | 0.00 | 0.16 | 0.10 | 83 | 1018.6 |
| 20260831235337 | 73 | 159 | 2.0 | 7.0 | 0.00 | 0.16 | 0.10 | 83 | 1018.6 |
| 20260831234831 | 73 | 130 | 2.0 | 4.0 | 0.00 | 0.16 | 0.10 | 83 | 1018.6 |
| 20260831234322 | 73 | 109 | 1.0 | 5.0 | 0.00 | 0.16 | 0.10 | 83 | 1018.7 |
| 20260831233817 | 73 | 192 | 1.0 | 6.0 | 0.00 | 0.16 | 0.10 | 83 | 1018.7 |
| 20260831233332 | 73 | 153 | 1.0 | 6.0 | 0.00 | 0.16 | 0.10 | 83 | 1018.6 |
| 20260831232823 | 73 | 210 | 2.0 | 6.0 | 0.00 | 0.16 | 0.10 | 82 | 1018.6 |
| 20260831232314 | 73 | 146 | 3.0 | 6.0 | 0.00 | 0.16 | 0.10 | 82 | 1018.6 |
| 20260831231826 | 73 | 148 | 2.0 | 6.0 | 0.00 | 0.16 | 0.10 | 82 | 1018.6 |
| 20260831231317 | 73 | 221 | 2.0 | 6.0 | 0.00 | 0.16 | 0.10 | 82 | 1018.8 |
| 20260831230828 | 74 | 191 | 3.0 | 6.0 | 0.00 | 0.16 | 0.10 | 82 | 1018.8 |
| 20260831230320 | 74 | 158 | 3.0 | 5.0 | 0.00 | 0.16 | 0.10 | 82 | 1018.8 |
| 20260831225831 | 74 | 182 | 3.0 | 5.0 | 0.00 | 0.16 | 0.10 | 82 | 1018.8 |
| 20260831225326 | 74 | 152 | 1.0 | 4.0 | 0.00 | 0.16 | 0.10 | 81 | 1018.8 |
| 20260831224820 | 74 | 138 | 1.0 | 4.0 | 0.00 | 0.16 | 0.10 | 82 | 1018.8 |
| 20260831224332 | 74 | 123 | 1.0 | 4.0 | 0.00 | 0.16 | 0.10 | 82 | 1018.8 |
| 20260831223823 | 74 | 178 | 2.0 | 5.0 | 0.00 | 0.16 | 0.10 | 81 | 1018.8 |
| 20260831223315 | 74 | 134 | 1.0 | 5.0 | 0.00 | 0.16 | 0.10 | 81 | 1018.8 |
| 20260831222826 | 74 | 148 | 2.0 | 4.0 | 0.00 | 0.16 | 0.10 | 81 | 1018.9 |
| 20260831222317 | 74 | 119 | 2.0 | 5.0 | 0.00 | 0.16 | 0.10 | 81 | 1018.8 |
| 20260831221829 | 74 | 182 | 3.0 | 5.0 | 0.00 | 0.16 | 0.10 | 81 | 1018.9 |
| 20260831221323 | 74 | 177 | 2.0 | 4.0 | 0.00 | 0.16 | 0.10 | 81 | 1018.9 |
| 20260831220817 | 74 | 141 | 2.0 | 5.0 | 0.00 | 0.16 | 0.10 | 81 | 1019.0 |
| 20260831220330 | 74 | 186 | 3.0 | 5.0 | 0.00 | 0.16 | 0.10 | 81 | 1019.0 |
| 20260831215820 | 74 | 161 | 1.0 | 4.0 | 0.00 | 0.16 | 0.10 | 81 | 1019.2 |
| 20260831215332 | 74 | 182 | 2.0 | 4.0 | 0.00 | 0.16 | 0.10 | 81 | 1019.1 |
| 20260831214823 | 74 | 192 | 2.0 | 4.0 | 0.00 | 0.16 | 0.10 | 80 | 1019.1 |
| 20260831214314 | 74 | 168 | 1.0 | 4.0 | 0.00 | 0.16 | 0.10 | 80 | 1019.0 |
| 20260831213827 | 74 | 153 | 2.0 | 4.0 | 0.00 | 0.16 | 0.10 | 81 | 1019.1 |
| 20260831213322 | 74 | 101 | 2.0 | 4.0 | 0.00 | 0.16 | 0.10 | 80 | 1019.0 |
| 20260831212834 | 74 | 144 | 2.0 | 4.0 | 0.00 | 0.16 | 0.10 | 80 | 1019.0 |
| 20260831212325 | 74 | 114 | 2.0 | 4.0 | 0.00 | 0.16 | 0.10 | 80 | 1019.0 |
| 20260831211817 | 74 | 173 | 2.0 | 4.0 | 0.00 | 0.16 | 0.10 | 80 | 1019.0 |
| 20260831211329 | 74 | 101 | 2.0 | 5.0 | 0.00 | 0.16 | 0.10 | 80 | 1019.0 |
| 20260831210820 | 74 | 113 | 3.0 | 7.0 | 0.00 | 0.16 | 0.10 | 80 | 1018.9 |
| 20260831210315 | 74 | 103 | 3.0 | 7.0 | 0.00 | 0.16 | 0.10 | 80 | 1019.1 |
| 20260831205826 | 74 | 49 | 1.0 | 3.0 | 0.00 | 0.16 | 0.10 | 80 | 1019.2 |
| 20260831205321 | 74 | 100 | 1.0 | 3.0 | 0.00 | 0.16 | 0.10 | 80 | 1019.3 |
| 20260831204834 | 74 | 116 | 1.0 | 5.0 | 0.00 | 0.16 | 0.10 | 80 | 1019.4 |